Location: Koslow
(50.3020°N, 18.5663°E)
Time: 08:12:52
(UTC+00:00)

STARLINK-1357 - Pass Details

Date: 09 October 2020
Orbit: 548 x 551 km, 53.0° (Epoch: 31 October)

Event Time Altitude Azimuth Distance (km) Brightness Sun altitude
Exits shadow 03:37:29 22° 280° (W) 1,231 4.8 -13.8°
Maximum altitude 03:39:56 54° 211° (SSW) 672 3.8 -13.4°
Drops below altitude 10° 03:43:59 10° 133° (SE) 1,824 6.9 -12.7°
Sets 03:46:15 0° 129° (SE) 2,715 7.9 -12.4°
